period_start,C,m1,H,J0,J1,J2,J3,J4,J5,JA,JB,JC,JD,JJ,JK,JN,#
2017-07-24 00:04:50,0.00,0.57,0.00,22.59,26.84,29.76,14.03,45.08,1017.08,2033.99,3311.94,2932.99,3341.82,600.26,597.40,36.03,0000 0000 0000 0000 000000
2017-07-24 00:09:52,0.01,0.57,0.00,22.61,26.84,29.78,13.91,44.95,1017.09,2033.99,3311.73,2932.98,3341.44,599.63,596.86,36.08,0000 0000 0000 0000 000000
2017-07-24 00:14:53,0.00,0.57,0.00,22.61,26.84,29.79,13.99,45.03,1017.09,2033.99,3311.46,2932.99,3341.18,599.93,596.99,36.13,0000 0000 0000 0000 000000
2017-07-24 00:19:54,0.00,0.57,0.00,22.62,26.85,29.78,13.99,45.26,1017.08,2033.99,3311.61,2932.99,3341.18,600.04,597.09,36.18,0000 0000 0000 0000 000000
2017-07-24 00:24:55,-0.00,0.57,0.00,22.63,26.85,29.77,13.98,45.23,1017.08,2033.99,3311.48,2932.98,3341.18,600.03,597.19,36.23,0000 0000 0000 0000 000000
2017-07-24 00:29:56,0.01,0.57,0.00,22.64,26.85,29.82,13.99,45.19,1017.05,2033.99,3311.12,2932.95,3341.03,599.94,597.00,36.28,0000 0000 0000 0000 000000
2017-07-24 00:34:58,0.00,0.57,0.00,22.64,26.85,29.79,13.97,45.33,1017.05,2033.99,3311.03,2932.91,3341.01,600.04,596.91,36.33,0000 0000 0000 0000 000000
2017-07-24 00:39:59,0.00,0.57,0.00,22.65,26.85,29.81,13.92,45.25,1017.08,2033.99,3311.01,2932.92,3341.01,599.78,596.72,36.38,0000 0000 0000 0000 000000
2017-07-24 00:45:00,0.01,0.57,0.00,22.66,26.85,29.80,13.98,45.26,1017.06,2033.99,3311.00,2932.52,3341.00,600.24,597.25,36.44,0000 0000 0000 0000 000000
2017-07-24 00:50:02,0.00,0.57,0.00,22.67,26.85,29.82,14.00,45.23,1017.01,2033.99,3310.99,2932.20,3341.00,600.07,596.93,36.49,0000 0000 0000 0000 000000
2017-07-24 00:55:03,0.00,0.57,0.00,22.68,26.86,29.79,13.88,45.32,1016.79,2033.99,3310.99,2932.17,3341.00,599.22,596.00,36.54,0000 0000 0000 0000 000000
2017-07-24 01:00:04,-0.00,0.57,0.00,22.68,26.87,29.82,14.01,45.16,1016.79,2033.98,3310.97,2932.10,3340.98,600.09,596.87,36.59,0000 0000 0000 0000 000000
2017-07-24 01:05:05,0.00,0.57,0.00,22.69,26.87,29.81,14.00,45.09,1017.02,2033.99,3310.94,2932.07,3340.97,600.16,596.91,36.64,0000 0000 0000 0000 000000
2017-07-24 01:10:06,0.00,0.57,0.00,22.71,26.87,29.83,13.90,45.13,1017.07,2033.98,3310.90,2932.03,3340.95,599.96,596.82,36.69,0000 0000 0000 0000 000000
2017-07-24 01:15:07,0.00,0.57,0.00,22.73,26.88,29.85,13.91,45.04,1016.98,2033.98,3310.64,2932.02,3340.93,599.65,596.46,36.74,0000 0000 0000 0000 000000
2017-07-24 01:20:08,0.00,0.57,0.00,22.75,26.90,29.86,13.97,44.97,1016.71,2033.99,3310.37,2932.02,3340.87,600.02,596.63,36.79,0000 0000 0000 0000 000000
2017-07-24 01:25:10,0.00,0.57,0.00,22.77,26.90,29.84,14.01,45.00,1016.84,2033.98,3310.27,2932.00,3340.59,599.96,596.67,36.84,0000 0000 0000 0000 000000
2017-07-24 01:30:11,0.01,0.57,0.00,22.78,26.90,29.84,13.93,44.98,1016.94,2033.99,3310.04,2932.00,3340.19,599.52,596.32,36.89,0000 0000 0000 0000 000000
2017-07-24 01:35:12,-0.00,0.57,0.00,22.79,26.92,29.86,13.92,44.95,1016.77,2033.94,3310.00,2932.00,3340.01,599.86,596.37,36.94,0000 0000 0000 0000 000000
2017-07-24 01:40:13,0.00,0.57,0.00,22.81,26.92,29.88,13.97,44.89,1016.65,2033.92,3310.00,2931.98,3340.00,600.49,596.78,36.99,0000 0000 0000 0000 000000
2017-07-24 01:45:15,-0.01,0.57,0.00,22.83,26.94,29.87,13.85,44.87,1016.69,2033.85,3310.00,2931.97,3340.00,600.03,596.55,37.04,0000 0000 0000 0000 000000
2017-07-24 01:50:16,-0.02,0.57,0.00,22.86,26.95,29.91,13.93,44.95,1016.87,2033.60,3309.98,2931.97,3340.00,599.55,596.14,37.09,0000 0000 0000 0000 000000
2017-07-24 01:55:17,-0.01,0.57,0.00,22.89,26.96,29.90,13.96,44.98,1016.99,2033.34,3309.99,2931.92,3339.97,599.77,596.21,37.14,0000 0000 0000 0000 000000
2017-07-24 02:00:18,-0.02,0.57,0.00,22.91,26.97,29.90,13.86,44.99,1017.02,2033.08,3309.99,2931.87,3339.95,599.54,595.83,37.19,0000 0000 0000 0000 000000
2017-07-24 02:05:19,0.00,0.57,0.00,22.94,27.00,29.93,13.95,44.92,1016.72,2033.01,3309.96,2931.60,3339.85,600.13,596.38,37.24,0000 0000 0000 0000 000000
2017-07-24 02:10:21,0.02,0.57,0.00,22.97,27.01,29.94,13.92,44.97,1016.68,2033.00,3309.96,2931.19,3339.39,599.66,595.87,37.29,0000 0000 0000 0000 000000
2017-07-24 02:15:22,0.02,0.57,0.00,23.01,27.03,29.96,14.02,45.07,1016.64,2033.00,3309.60,2931.05,3339.10,600.17,596.13,37.35,0000 0000 0000 0000 000000
2017-07-24 02:20:23,0.00,0.57,0.00,23.04,27.05,29.97,13.93,45.02,1016.63,2033.00,3309.33,2931.00,3339.01,599.83,595.73,37.40,0000 0000 0000 0000 000000
2017-07-24 02:25:24,0.00,0.57,0.00,23.08,27.08,30.00,13.92,44.91,1016.67,2032.99,3309.03,2931.00,3339.00,599.79,595.77,37.45,0000 0000 0000 0000 000000
2017-07-24 02:30:25,0.00,0.57,0.00,23.14,27.10,29.99,13.92,44.98,1017.01,2032.98,3309.00,2930.98,3338.97,600.16,596.16,37.50,0000 0000 0000 0000 000000
2017-07-24 02:35:26,0.00,0.57,0.00,23.18,27.13,30.03,13.94,44.93,1017.04,2032.94,3309.00,2930.90,3338.78,600.02,596.02,37.55,0000 0000 0000 0000 000000
2017-07-24 02:40:28,0.02,0.57,0.00,23.21,27.16,30.06,13.89,45.21,1016.73,2032.85,3308.99,2930.39,3338.17,600.16,595.84,37.60,0000 0000 0000 0000 000000
2017-07-24 02:45:29,-0.00,0.57,0.00,23.25,27.19,30.07,13.87,45.11,1016.66,2032.72,3308.93,2930.11,3338.01,600.01,595.59,37.65,0000 0000 0000 0000 000000
2017-07-24 02:50:30,-0.03,0.57,0.00,23.28,27.22,30.07,13.90,45.27,1016.76,2032.31,3308.27,2930.01,3337.99,599.58,595.21,37.70,0000 0000 0000 0000 000000
2017-07-24 02:55:31,0.04,0.57,0.00,23.33,27.25,30.08,13.92,45.27,1016.75,2032.10,3307.47,2929.43,3337.22,600.17,595.65,37.75,0000 0000 0000 0000 000000
2017-07-24 03:00:33,0.01,0.57,0.00,23.37,27.28,30.10,13.93,45.26,1016.79,2032.10,3306.94,2929.00,3336.97,600.02,595.29,37.80,0000 0000 0000 0000 000000
2017-07-24 03:05:34,0.01,0.57,0.00,23.42,27.31,30.14,13.88,45.01,1016.68,2032.04,3306.32,2928.94,3336.32,599.84,595.13,37.85,0000 0000 0000 0000 000000
2017-07-24 03:10:35,0.03,0.57,0.00,23.46,27.34,30.13,13.91,44.99,1016.66,2032.00,3306.01,2928.20,3336.01,599.71,594.85,37.90,0000 0000 0000 0000 000000
2017-07-24 03:15:36,0.01,0.57,0.00,23.51,27.38,30.15,13.82,44.87,1016.64,2032.00,3305.64,2928.00,3335.71,599.77,594.74,37.95,0000 0000 0000 0000 000000
2017-07-24 03:20:38,0.01,0.58,0.00,23.56,27.41,30.17,13.84,45.00,1016.64,2031.99,3305.03,2927.96,3335.05,600.07,595.02,38.00,0000 0000 0000 0000 000000
2017-07-24 03:25:39,0.02,0.58,0.00,23.59,27.44,30.17,13.92,44.96,1016.65,2031.99,3304.77,2927.38,3334.97,600.27,595.13,38.05,0000 0000 0000 0000 000000
2017-07-24 03:30:40,0.02,0.58,0.00,23.65,27.47,30.20,13.95,44.96,1016.68,2031.98,3304.03,2927.00,3334.22,600.26,594.96,38.10,0000 0000 0000 0000 000000
2017-07-24 03:35:41,-0.03,0.58,0.00,23.71,27.51,30.21,13.85,44.87,1016.65,2031.74,3303.94,2926.88,3334.00,599.96,594.67,38.15,0000 0000 0000 0000 000000
2017-07-24 03:40:43,0.00,0.58,0.00,23.74,27.54,30.22,13.91,44.78,1016.63,2031.11,3303.39,2926.17,3333.60,600.12,594.63,38.20,0000 0000 0000 0000 000000
2017-07-24 03:45:44,0.01,0.58,0.00,23.78,27.58,30.24,13.89,44.79,1016.63,2031.04,3302.82,2925.99,3333.03,600.51,594.86,38.25,0000 0000 0000 0000 000000
2017-07-24 03:50:46,0.03,0.58,0.00,23.83,27.61,30.27,13.82,44.93,1016.63,2031.01,3302.07,2925.49,3332.67,599.91,594.36,38.31,0000 0000 0000 0000 000000
2017-07-24 03:55:47,0.02,0.58,0.00,23.87,27.65,30.30,13.79,44.83,1016.63,2031.00,3301.62,2925.01,3332.03,599.74,594.05,38.36,0000 0000 0000 0000 000000
2017-07-24 04:00:48,0.00,0.58,0.00,23.90,27.68,30.34,13.81,44.75,1016.62,2030.99,3301.07,2924.99,3331.97,599.90,594.20,38.41,0000 0000 0000 0000 000000
2017-07-24 04:05:50,0.01,0.58,0.00,23.94,27.72,30.37,13.90,44.83,1016.62,2030.85,3300.96,2924.63,3331.31,599.83,594.01,38.46,0000 0000 0000 0000 000000
2017-07-24 04:10:51,-0.02,0.58,0.00,23.98,27.75,30.42,13.88,44.85,1016.62,2030.46,3300.28,2924.03,3330.99,600.16,594.36,38.51,0000 0000 0000 0000 000000
2017-07-24 04:15:52,-0.01,0.58,0.00,24.02,27.79,30.45,13.94,44.82,1016.62,2030.04,3299.98,2923.97,3330.48,600.45,594.41,38.56,0000 0000 0000 0000 000000
2017-07-24 04:20:54,0.04,0.58,0.00,24.06,27.82,30.48,13.86,44.81,1016.62,2030.00,3299.37,2923.33,3330.02,599.99,593.89,38.61,0000 0000 0000 0000 000000
2017-07-24 04:25:55,0.00,0.58,0.00,24.10,27.86,30.50,13.76,44.74,1016.62,2030.00,3299.00,2923.00,3329.83,599.82,593.79,38.66,0000 0000 0000 0000 000000
2017-07-24 04:30:56,0.02,0.58,0.00,24.13,27.90,30.56,13.82,44.70,1016.62,2030.00,3298.58,2922.96,3329.11,600.03,593.73,38.71,0000 0000 0000 0000 000000
2017-07-24 04:35:57,0.02,0.58,0.00,24.16,27.93,30.59,13.81,44.79,1016.62,2029.98,3298.13,2922.50,3329.00,599.81,593.46,38.76,0000 0000 0000 0000 000000
2017-07-24 04:40:58,-0.02,0.59,0.00,24.20,27.97,30.63,13.85,44.75,1016.62,2029.80,3297.98,2922.01,3328.78,599.72,593.36,38.81,0000 0000 0000 0000 000000
2017-07-24 04:46:00,0.03,0.59,0.00,24.23,28.00,30.69,13.79,44.75,1016.62,2029.63,3297.27,2921.98,3328.08,599.86,593.43,38.86,0000 0000 0000 0000 000000
2017-07-24 04:51:01,-0.03,0.58,0.00,24.27,28.03,30.73,13.81,44.68,1016.62,2029.28,3296.98,2921.64,3328.00,599.85,593.32,38.91,0000 0000 0000 0000 000000
2017-07-24 04:56:02,0.02,0.59,0.00,24.29,28.07,30.76,13.86,44.58,1016.62,2029.05,3296.30,2921.03,3327.50,599.89,593.34,38.96,0000 0000 0000 0000 000000
2017-07-24 05:01:04,0.00,0.59,0.00,24.32,28.10,30.81,13.91,44.70,1016.62,2029.01,3296.02,2921.00,3327.04,600.04,593.46,39.01,0000 0000 0000 0000 000000
2017-07-24 05:06:05,0.00,0.59,0.00,24.35,28.13,30.86,13.90,44.69,1016.62,2029.00,3296.00,2920.97,3327.00,600.11,593.62,39.06,0000 0000 0000 0000 000000
2017-07-24 05:11:06,0.03,0.59,0.00,24.37,28.16,30.90,13.90,44.78,1016.62,2029.00,3295.87,2920.46,3326.79,600.02,593.21,39.11,0000 0000 0000 0000 000000
2017-07-24 05:16:07,-0.02,0.59,0.00,24.41,28.19,30.97,13.90,44.77,1016.61,2028.74,3295.37,2920.01,3326.09,600.18,593.27,39.16,0000 0000 0000 0000 000000
2017-07-24 05:21:09,-0.03,0.59,0.00,24.45,28.23,30.98,13.86,44.84,1016.56,2028.19,3295.05,2920.00,3326.00,600.02,593.19,39.22,0000 0000 0000 0000 000000
2017-07-24 05:26:10,-0.00,0.58,0.00,24.48,28.26,31.03,13.85,44.71,1016.30,2028.02,3295.01,2919.98,3325.99,599.88,592.86,39.27,0000 0000 0000 0000 000000
2017-07-24 05:31:12,0.02,0.58,0.00,24.51,28.29,31.06,13.83,44.58,1016.21,2028.00,3294.86,2919.65,3325.65,600.27,593.00,39.32,0000 0000 0000 0000 000000
2017-07-24 05:36:13,0.03,0.59,0.00,24.54,28.33,31.08,13.83,44.73,1016.27,2028.00,3294.19,2919.08,3325.04,599.83,592.50,39.37,0000 0000 0000 0000 000000
2017-07-24 05:41:14,-0.00,0.59,0.00,24.57,28.36,31.11,13.83,44.68,1016.14,2027.98,3294.00,2919.00,3324.98,600.11,592.63,39.42,0000 0000 0000 0000 000000
2017-07-24 05:46:15,0.01,0.59,0.00,24.59,28.39,31.15,13.89,44.71,1016.14,2027.90,3293.92,2918.90,3324.63,600.27,592.65,39.47,0000 0000 0000 0000 000000
2017-07-24 05:51:16,0.01,0.59,0.00,24.62,28.43,31.20,13.80,44.68,1016.13,2027.60,3293.30,2918.25,3324.05,599.83,592.35,39.52,0000 0000 0000 0000 000000
2017-07-24 05:56:18,-0.03,0.59,0.00,24.66,28.46,31.24,13.81,44.87,1016.13,2027.14,3293.02,2918.02,3324.00,599.93,592.28,39.57,0000 0000 0000 0000 000000
2017-07-24 06:01:19,0.01,0.59,0.00,24.68,28.49,31.30,13.86,44.68,1016.13,2027.03,3292.81,2917.98,3323.65,599.99,592.37,39.62,0000 0000 0000 0000 000000
2017-07-24 06:06:20,0.03,0.59,0.00,24.70,28.52,31.34,13.75,44.70,1016.13,2027.00,3292.19,2917.62,3323.09,599.89,592.20,39.67,0000 0000 0000 0000 000000
2017-07-24 06:11:22,0.01,0.59,0.00,24.74,28.56,31.42,13.80,44.82,1016.13,2027.00,3292.02,2917.13,3323.00,599.70,592.04,39.72,0000 0000 0000 0000 000000
2017-07-24 06:16:23,0.00,0.59,0.00,24.77,28.59,31.46,13.82,44.79,1016.04,2026.97,3292.00,2917.02,3322.96,599.97,592.20,39.77,0000 0000 0000 0000 000000
2017-07-24 06:21:25,0.01,0.59,0.00,24.76,28.62,31.51,13.87,44.76,1015.86,2026.88,3291.78,2916.99,3322.40,600.19,592.28,39.82,0000 0000 0000 0000 000000
2017-07-24 06:26:26,0.01,0.59,0.00,24.75,28.65,31.62,13.83,44.69,1015.88,2026.74,3291.06,2916.91,3322.01,599.98,592.04,39.87,0000 0000 0000 0000 000000
2017-07-24 06:31:27,-0.04,0.59,0.00,24.75,28.68,31.65,13.78,44.71,1015.74,2026.19,3291.00,2916.33,3322.00,599.90,591.94,39.92,0000 0000 0000 0000 000000
2017-07-24 06:36:28,-0.00,0.59,0.00,24.75,28.70,31.68,13.89,44.85,1015.65,2026.10,3290.94,2916.02,3321.95,600.06,592.00,39.97,0000 0000 0000 0000 000000
2017-07-24 06:41:30,0.02,0.59,0.00,24.72,28.72,31.66,13.86,44.65,1015.65,2026.04,3290.34,2916.00,3321.41,600.03,592.06,40.02,0000 0000 0000 0000 000000
2017-07-24 06:46:31,0.00,0.59,0.00,24.71,28.75,31.71,13.84,44.83,1015.65,2026.02,3290.05,2916.00,3321.07,600.15,592.13,40.07,0000 0000 0000 0000 000000
2017-07-24 06:51:32,0.00,0.59,0.00,24.71,28.76,31.69,13.79,44.87,1015.62,2026.00,3289.99,2915.93,3321.00,599.76,591.80,40.12,0000 0000 0000 0000 000000
2017-07-24 06:56:33,0.02,0.59,0.00,24.71,28.77,31.70,13.79,44.71,1015.41,2026.00,3289.94,2915.36,3320.97,599.90,591.91,40.18,0000 0000 0000 0000 000000
2017-07-24 07:01:35,0.00,0.59,0.00,24.72,28.79,31.70,13.89,44.79,1015.34,2025.99,3289.82,2915.18,3320.91,600.13,591.92,40.23,0000 0000 0000 0000 000000
2017-07-24 07:06:36,0.01,0.59,0.00,24.72,28.80,31.71,13.82,44.81,1015.30,2025.99,3289.39,2915.03,3320.50,600.33,592.08,40.28,0000 0000 0000 0000 000000
2017-07-24 07:11:38,0.01,0.59,0.00,24.74,28.82,31.73,13.89,44.81,1015.24,2025.99,3289.06,2915.00,3320.13,600.29,592.00,40.33,0000 0000 0000 0000 000000
2017-07-24 07:16:39,0.00,0.59,0.00,24.76,28.82,31.72,13.83,44.76,1015.16,2025.98,3289.00,2915.00,3320.01,600.04,591.76,40.38,0000 0000 0000 0000 000000
2017-07-24 07:21:40,0.00,0.59,0.00,24.77,28.85,31.75,13.79,44.71,1015.15,2025.97,3288.94,2914.99,3320.00,599.91,591.67,40.43,0000 0000 0000 0000 000000
2017-07-24 07:26:41,0.00,0.59,0.00,24.79,28.86,31.74,13.81,44.70,1015.17,2025.95,3288.64,2914.95,3319.99,600.15,591.64,40.48,0000 0000 0000 0000 000000
2017-07-24 07:31:43,0.03,0.59,0.00,24.80,28.87,31.76,13.78,44.70,1015.16,2025.90,3288.07,2914.43,3319.76,599.77,591.39,40.53,0000 0000 0000 0000 000000
2017-07-24 07:36:44,0.01,0.59,0.00,24.78,28.89,31.80,13.88,44.73,1015.16,2025.86,3287.99,2914.03,3319.12,600.19,591.68,40.58,0000 0000 0000 0000 000000
2017-07-24 07:41:45,-0.01,0.59,0.00,24.75,28.90,31.83,13.90,44.71,1015.15,2025.76,3287.96,2914.01,3319.01,600.09,591.84,40.63,0000 0000 0000 0000 000000
2017-07-24 07:46:47,-0.00,0.59,0.00,24.71,28.91,31.83,13.86,44.60,1015.15,2025.55,3287.71,2914.00,3319.00,600.05,591.81,40.68,0000 0000 0000 0000 000000
2017-07-24 07:51:48,-0.03,0.59,0.00,24.66,28.92,31.82,13.87,44.76,1015.15,2025.41,3287.70,2914.00,3319.00,599.96,591.68,40.73,0000 0000 0000 0000 000000
2017-07-24 07:56:50,-0.03,0.59,0.00,24.62,28.92,31.77,13.87,44.76,1015.09,2025.04,3287.92,2914.00,3318.98,600.06,591.99,40.78,0000 0000 0000 0000 000000
2017-07-24 08:01:51,0.00,0.59,0.00,24.60,28.92,31.76,13.92,44.73,1014.96,2025.00,3287.76,2914.00,3318.98,600.04,592.03,40.83,0000 0000 0000 0000 000000
2017-07-24 08:06:52,-0.00,0.59,0.00,24.60,28.92,31.76,13.82,44.84,1014.73,2025.00,3287.73,2914.00,3318.98,600.25,591.96,40.88,0000 0000 0000 0000 000000
2017-07-24 08:11:53,0.01,0.59,0.00,24.60,28.91,31.75,13.82,44.83,1014.70,2025.01,3287.46,2913.98,3318.97,599.90,591.64,40.93,0000 0000 0000 0000 000000
2017-07-24 08:16:54,0.00,0.59,0.00,24.60,28.90,31.76,13.80,44.76,1014.67,2025.04,3287.01,2913.98,3318.93,599.68,591.34,40.98,0000 0000 0000 0000 000000
2017-07-24 08:21:56,0.00,0.59,0.00,24.63,28.90,31.75,13.74,44.78,1014.67,2025.04,3286.99,2913.97,3318.78,599.95,591.49,41.03,0000 0000 0000 0000 000000
2017-07-24 08:26:57,0.00,0.59,0.00,24.65,28.90,31.74,13.83,44.88,1014.66,2025.09,3286.99,2913.97,3318.61,599.90,591.50,41.08,0000 0000 0000 0000 000000
2017-07-24 08:31:58,0.00,0.59,0.00,24.68,28.91,31.75,13.77,44.71,1014.66,2025.07,3286.99,2913.96,3318.43,599.73,591.16,41.14,0000 0000 0000 0000 000000
2017-07-24 08:36:59,0.01,0.59,0.00,24.71,28.92,31.74,13.81,44.78,1014.66,2025.05,3286.98,2913.81,3318.12,600.08,591.56,41.19,0000 0000 0000 0000 000000
2017-07-24 08:42:01,0.02,0.59,0.00,24.76,28.92,31.77,13.90,44.86,1014.64,2025.01,3286.76,2913.18,3318.00,600.11,591.28,41.24,0000 0000 0000 0000 000000
2017-07-24 08:47:02,0.00,0.59,0.00,24.81,28.93,31.78,13.90,44.99,1014.55,2025.00,3286.36,2913.04,3318.00,600.23,591.45,41.29,0000 0000 0000 0000 000000
2017-07-24 08:52:03,0.00,0.59,0.00,24.86,28.95,31.79,13.77,44.79,1014.42,2025.00,3286.12,2913.02,3318.00,600.20,591.24,41.34,0000 0000 0000 0000 000000
2017-07-24 08:57:05,0.00,0.59,0.00,24.90,28.96,31.77,13.76,44.81,1014.51,2025.00,3286.03,2913.00,3317.95,599.88,590.91,41.39,0000 0000 0000 0000 000000
2017-07-24 09:02:06,0.00,0.59,0.00,24.94,28.97,31.79,13.84,44.95,1014.49,2025.00,3286.01,2913.00,3317.66,599.84,590.80,41.44,0000 0000 0000 0000 000000
2017-07-24 09:07:08,0.00,0.59,0.00,24.97,28.99,31.81,13.93,44.85,1014.24,2024.98,3286.00,2912.99,3317.15,600.49,591.20,41.49,0000 0000 0000 0000 000000
2017-07-24 09:12:09,-0.00,0.59,0.00,25.01,29.01,31.85,13.75,44.98,1014.30,2024.96,3285.99,2912.94,3317.00,599.70,590.41,41.54,0000 0000 0000 0000 000000
2017-07-24 09:17:10,0.00,0.59,0.00,25.04,29.02,31.88,13.77,44.84,1014.24,2024.90,3285.96,2912.75,3317.00,600.14,590.68,41.59,0000 0000 0000 0000 000000
2017-07-24 09:22:12,0.00,0.59,0.00,25.08,29.05,31.91,13.78,44.79,1014.23,2024.78,3285.77,2912.36,3317.00,600.05,590.56,41.64,0000 0000 0000 0000 000000
2017-07-24 09:27:13,-0.01,0.60,0.00,25.14,29.07,31.90,13.77,44.82,1014.21,2024.67,3285.07,2912.03,3316.91,600.15,590.55,41.69,0000 0000 0000 0000 000000
2017-07-24 09:32:14,-0.02,0.59,0.00,25.19,29.09,31.94,13.78,44.77,1014.22,2024.36,3285.02,2912.00,3316.57,600.19,590.41,41.74,0000 0000 0000 0000 000000
2017-07-24 09:37:15,-0.01,0.59,0.00,25.23,29.11,31.94,13.80,44.84,1014.23,2024.08,3285.00,2912.00,3316.08,600.11,590.22,41.79,0000 0000 0000 0000 000000
2017-07-24 09:42:16,-0.00,0.59,0.00,25.28,29.14,31.97,13.80,44.73,1014.21,2024.01,3284.98,2911.99,3316.00,600.16,590.21,41.84,0000 0000 0000 0000 000000
2017-07-24 09:47:17,0.01,0.59,0.00,25.32,29.16,31.98,13.72,44.72,1014.22,2024.01,3284.62,2911.89,3316.00,599.73,589.69,41.89,0000 0000 0000 0000 000000
2017-07-24 09:52:18,0.03,0.59,0.00,25.37,29.19,31.99,13.76,44.82,1014.21,2024.00,3284.07,2911.29,3315.70,600.20,590.00,41.94,0000 0000 0000 0000 000000
2017-07-24 09:57:20,0.00,0.60,0.00,25.42,29.21,32.01,13.77,44.99,1014.20,2024.00,3284.00,2911.01,3315.09,600.14,589.90,42.00,0000 0000 0000 0000 000000
2017-07-24 10:02:21,0.00,0.60,0.00,25.46,29.24,32.01,13.73,45.23,1014.19,2023.98,3283.93,2910.99,3315.00,599.79,589.34,42.05,0000 0000 0000 0000 000000
2017-07-24 10:07:22,0.01,0.60,0.00,25.47,29.27,31.96,13.81,44.89,1014.18,2023.97,3283.25,2910.91,3314.96,599.93,589.63,42.10,0000 0000 0000 0000 000000
2017-07-24 10:12:23,0.01,0.60,0.00,25.50,29.30,31.92,13.66,44.86,1014.18,2023.92,3283.05,2910.52,3314.75,599.76,589.41,42.15,0000 0000 0000 0000 000000
2017-07-24 10:17:24,-0.02,0.60,0.00,25.53,29.32,31.85,13.68,44.88,1014.18,2023.57,3283.01,2910.14,3314.19,599.83,589.45,42.20,0000 0000 0000 0000 000000
2017-07-24 10:22:25,-0.03,0.59,0.00,25.57,29.35,31.82,13.73,44.86,1014.18,2023.09,3282.98,2910.01,3314.01,599.69,589.21,42.25,0000 0000 0000 0000 000000
2017-07-24 10:27:26,0.00,0.59,0.00,25.61,29.38,31.83,13.77,44.90,1014.18,2023.01,3282.86,2909.99,3313.97,600.05,589.47,42.30,0000 0000 0000 0000 000000
2017-07-24 10:32:28,0.01,0.59,0.00,25.66,29.41,31.86,13.71,44.86,1014.18,2023.00,3282.48,2909.95,3313.69,600.04,589.27,42.35,0000 0000 0000 0000 000000
2017-07-24 10:37:29,0.03,0.60,0.00,25.69,29.45,31.91,13.75,44.77,1014.18,2023.00,3282.03,2909.42,3313.07,600.04,589.25,42.40,0000 0000 0000 0000 000000
2017-07-24 10:42:30,0.00,0.60,0.00,25.70,29.48,31.97,13.75,44.51,1014.18,2022.99,3282.00,2909.04,3313.00,600.05,589.36,42.45,0000 0000 0000 0000 000000
2017-07-24 10:47:31,0.00,0.60,0.00,25.70,29.51,32.03,13.78,44.84,1014.18,2022.96,3281.89,2909.00,3312.99,600.16,589.47,42.50,0000 0000 0000 0000 000000
2017-07-24 10:52:32,0.01,0.60,0.00,25.68,29.55,32.07,13.76,44.75,1014.18,2022.92,3281.20,2908.99,3312.77,600.33,589.64,42.55,0000 0000 0000 0000 000000
2017-07-24 10:57:33,-0.03,0.60,0.00,25.69,29.58,32.11,13.72,44.73,1014.18,2022.52,3281.00,2908.74,3312.09,599.70,589.07,42.60,0000 0000 0000 0000 000000
2017-07-24 11:02:35,-0.01,0.60,0.00,25.73,29.61,32.14,13.76,44.78,1014.18,2022.07,3280.96,2908.07,3312.00,600.18,589.34,42.65,0000 0000 0000 0000 000000
2017-07-24 11:07:36,0.01,0.60,0.00,25.76,29.63,32.17,13.78,44.65,1014.18,2022.02,3280.52,2908.01,3311.98,600.38,589.55,42.70,0000 0000 0000 0000 000000
2017-07-24 11:12:37,0.01,0.60,0.00,25.77,29.66,32.20,13.76,44.74,1014.18,2022.00,3280.05,2908.00,3311.70,600.10,589.19,42.75,0000 0000 0000 0000 000000
2017-07-24 11:17:39,0.01,0.60,0.00,25.79,29.67,32.21,13.70,44.52,1014.18,2022.00,3280.00,2907.99,3311.21,600.06,589.24,42.80,0000 0000 0000 0000 000000
2017-07-24 11:22:40,0.00,0.60,0.00,25.81,29.69,32.20,13.69,44.28,1014.15,2022.00,3280.00,2907.96,3311.04,599.88,589.00,42.85,0000 0000 0000 0000 000000
2017-07-24 11:27:42,0.00,0.60,0.00,25.71,29.70,32.21,13.62,44.23,1014.17,2022.00,3279.96,2907.91,3311.00,599.92,589.11,42.90,0000 0000 0000 0000 000000
2017-07-24 11:32:43,-0.00,0.60,0.00,25.59,29.70,32.24,13.72,44.23,1014.17,2021.99,3279.95,2907.93,3311.00,599.88,589.28,42.96,0000 0000 0000 0000 000000
2017-07-24 11:37:44,0.00,0.60,0.00,25.47,29.67,32.27,13.73,44.20,1014.15,2021.99,3279.96,2907.95,3311.00,600.10,589.66,43.01,0000 0000 0000 0000 000000
2017-07-24 11:42:45,0.00,0.60,0.00,25.41,29.66,32.29,13.75,44.26,1014.01,2021.99,3279.94,2907.96,3311.02,599.92,589.69,43.06,0000 0000 0000 0000 000000
2017-07-24 11:47:47,0.00,0.60,0.00,25.40,29.64,32.25,13.85,44.19,1013.75,2021.99,3279.90,2907.98,3311.02,599.98,589.57,43.11,0000 0000 0000 0000 000000
2017-07-24 11:52:48,0.00,0.60,0.00,25.44,29.61,32.15,13.73,44.29,1013.72,2022.00,3279.97,2907.99,3311.05,600.13,589.62,43.16,0000 0000 0000 0000 000000
2017-07-24 11:57:49,-0.00,0.60,0.00,25.53,29.59,32.07,13.79,44.42,1013.73,2022.04,3279.99,2908.00,3311.45,599.97,589.36,43.21,0000 0000 0000 0000 000000
2017-07-24 12:02:50,-0.00,0.60,0.00,25.59,29.57,32.01,13.78,44.42,1013.71,2022.13,3279.99,2908.00,3311.85,600.22,589.43,43.26,0000 0000 0000 0000 000000
2017-07-24 12:07:52,0.02,0.60,0.00,25.57,29.55,31.96,13.65,44.52,1013.70,2022.33,3279.99,2908.02,3311.95,599.83,589.03,43.31,0000 0000 0000 0000 000000
2017-07-24 12:12:53,0.03,0.60,0.00,25.56,29.53,31.92,13.81,44.63,1013.69,2022.46,3280.01,2908.04,3311.97,600.07,589.37,43.36,0000 0000 0000 0000 000000
2017-07-24 12:17:54,-0.04,0.60,0.00,25.55,29.52,31.91,13.72,44.59,1013.69,2022.23,3280.03,2908.02,3311.90,600.22,589.49,43.41,0000 0000 0000 0000 000000
2017-07-24 12:22:56,0.00,0.60,0.00,25.55,29.52,31.92,13.68,44.58,1013.69,2022.15,3280.00,2908.00,3311.74,599.93,589.24,43.46,0000 0000 0000 0000 000000
2017-07-24 12:27:57,0.01,0.60,0.00,25.57,29.52,31.97,13.76,44.60,1013.69,2022.13,3280.00,2908.00,3311.26,600.10,589.34,43.51,0000 0000 0000 0000 000000
2017-07-24 12:32:58,0.00,0.60,0.00,25.57,29.55,31.99,13.74,44.65,1013.69,2022.18,3279.96,2908.00,3311.10,599.99,589.30,43.56,0000 0000 0000 0000 000000
2017-07-24 12:37:59,0.00,0.60,0.00,25.58,29.55,32.02,13.74,44.67,1013.69,2022.15,3279.70,2907.99,3311.02,599.86,589.00,43.61,0000 0000 0000 0000 000000
2017-07-24 12:43:01,0.01,0.60,0.00,25.60,29.56,32.06,13.75,44.74,1013.68,2022.07,3279.16,2907.95,3311.00,600.12,589.23,43.66,0000 0000 0000 0000 000000
2017-07-24 12:48:02,0.00,0.60,0.00,25.57,29.57,32.15,13.75,44.65,1013.64,2022.05,3279.02,2907.86,3311.00,599.99,589.21,43.71,0000 0000 0000 0000 000000
2017-07-24 12:53:03,-0.00,0.60,0.00,25.49,29.57,32.29,13.80,44.59,1013.48,2022.02,3279.00,2907.71,3310.97,600.24,589.36,43.76,0000 0000 0000 0000 000000
2017-07-24 12:58:05,0.00,0.60,0.00,25.36,29.57,32.40,13.77,44.48,1013.35,2022.05,3279.00,2907.86,3310.99,599.48,588.90,43.81,0000 0000 0000 0000 000000